Location: Central Falls
(41.8900°N, 71.3929°W)
Time: 13:20:22
(UTC+00:00)

A-11 Canister half - Pass Details

Date: 07 December 2023
Orbit: 1526 x 1682 km, 47.3° (Epoch: 04 March)

Event Time Altitude Azimuth Distance (km) Brightness Sun altitude
Rises 01:41:52 0° 269° (W) 4,933 12.3 -48.9°
Reaches altitude 10° 01:45:06 10° 273° (W) 3,944 11.6 -49.4°
Enters shadow 01:50:59 39° 288° (WNW) 2,332 10.0 -50.5°
